User: anonymous   Login
Location: Crocus Hill
(18.2167°N, 63.0667°W)
Time: 01:45:37
(UTC+00:00)
Language:

Cosmos 2322 Rocket - Orbit

View from above orbital plane
View from above orbital plane
View from above satellite
View from above satellite

Ground track
Ground track

The orbit data is extracted from the following two-line orbital elements,

1 23705U 95058B   20090.34874052 +.00000035 +00000-0 +42608-4 0  9990
2 23705 071.0215 054.9228 0013128 197.6913 162.3754 14.15136402261088
Epoch (UTC): 30 March 2020 08:22:11
Eccentricity: 0.0013128
inclination: 71.0215°
perigee height: 832 km
apogee height: 851 km
right ascension of ascending node: 54.9228°
argument of perigee: 197.6913°
revolutions per day: 14.15136402
mean anomaly at epoch: 162.3754°
orbit number at epoch: 26108

The dashed part of the orbit path shows where the satellite is in the earth's shadow,  

DLR